Location: Astronomy Club of Akron Observatory
(40.9700°N, 81.5606°W)
Time: 21:26:38
(UTC-04:00)

Daily predictions for brighter satellites

Satellite Brightness Start Highest point End
(mag) Time Altitude Azimuth Time Altitude Azimuth Time Altitude Azimuth
Cosmos 1092 Rocket 4.4 20:32:18 10° N 20:38:23 46° ENE 20:44:25 10° SSE
Meteor 2-3 Rocket 3.8 20:33:14 10° N 20:38:57 75° E 20:44:42 10° SSE
Cosmos 1315 Rocket 3.7 20:35:35 10° N 20:39:18 32° ENE 20:42:56 10° SE
H-2A R/B 2.8 20:37:19 10° SSE 20:41:14 84° ENE 20:45:07 10° N
Cosmos 2322 Rocket 3.3 20:37:53 10° SSE 20:41:58 21° E 20:46:04 10° NE
Cosmos 2034 Rocket 4.1 20:36:29 10° S 20:42:40 85° W 20:48:52 10° N
USA 186 2.3 20:40:52 10° SE 20:43:15 31° ENE 20:45:49 10° N
Cosmos 1707 Rocket 4.0 20:42:45 10° SSE 20:46:57 43° E 20:51:09 10° NNE
Abrixas rocket 2.1 20:43:47 10° SW 20:47:03 69° SSE 20:50:19 10° ENE
Spot 2 Rocket 3.5 20:43:26 10° SSE 20:48:31 78° ENE 20:53:37 10° N
USA 267 4.1 20:45:05 10° NE 20:51:26 54° NW 20:57:45 10° WSW
Cosmos 1980 Rocket 2.2 20:47:51 10° SSW 20:53:30 77° ESE 20:59:13 10° NNE
Helios 1B rocket 2.9 20:55:07 10° NNE 20:58:59 39° E 21:02:49 10° S
SL-8 R/B 4.4 20:54:26 10° WNW 20:59:05 48° SW 21:03:41 10° SE
CZ-2D R/B 3.3 20:55:42 10° SSE 20:59:35 88° WSW 21:03:30 10° NNW
Cosmos 2227 Rocket 4.5 20:55:38 10° NW 21:00:04 24° WSW 21:04:30 10° SSW
Lacrosse 4 Rocket 2.9 20:56:33 10° N 21:00:05 24° NE 21:03:17 12° ESE
Resurs 1-3 3.7 20:56:23 10° S 21:00:46 82° WSW 21:05:11 10° NNW
Meteor 1-29 3.8 20:57:49 10° NE 21:00:55 29° E 21:03:58 10° SSE
Cosmos 1869 Rocket 3.6 21:00:18 10° N 21:04:49 82° E 21:09:17 10° S
Cosmos 1825 3.2 21:02:33 10° NNE 21:05:50 27° ENE 21:08:25 14° SE
Cosmos 1900 4.5 21:00:45 10° NNW 21:05:52 87° WSW 21:11:00 10° SSE
Envisat 3.3 21:03:30 10° SSE 21:08:24 51° ENE 21:13:19 10° N
SL-16 R/B 2.8 21:03:36 10° SSE 21:08:40 35° ESE 21:13:46 10° NE
Cosmos 1302 Rocket 3.9 21:03:30 10° SSW 21:08:41 80° ESE 21:13:54 10° NNE
Milstar 3 3.9 21:05:32 10° WSW 21:12:36 31° S 21:17:22 14° SE
Cosmos 1939 Rocket 3.4 21:09:41 12° SE 21:13:11 41° ENE 21:16:59 10° N
Cosmos 2242 Rocket 4.1 21:09:05 10° SSE 21:13:17 40° E 21:17:30 10° NNE
CZ-4B DEB 2.8 21:15:52 16° SSE 21:18:06 50° ENE 21:21:05 10° N
Cosmos 2279 Rocket 4.4 21:13:16 10° SSE 21:19:04 42° E 21:24:54 10° NNE
Spot 1 4.5 21:14:30 10° SSE 21:19:40 80° ENE 21:24:48 10° N
ATLAS 5 CENTAUR R/B 3.8 21:15:11 10° NNW 21:19:53 24° NE 21:24:21 12° E
USA 234 3.3 21:20:01 15° SE 21:25:38 86° NE 21:32:14 10° NW
Meteor 2-20 4.4 21:19:38 10° N 21:25:47 83° E 21:31:56 10° S
OAO 3 Rocket 3.9 21:22:01 10° WSW 21:26:33 38° S 21:29:18 21° ESE
Resurs 01 Rocket 3.3 21:25:26 10° SSW 21:29:29 34° W 21:33:33 10° NNW
Atlas Centaur 2 3.9 21:25:17 10° SSW 21:30:59 24° SSE 21:34:13 19° SE
Helios 1A 3.2 21:27:16 10° S 21:31:29 74° WSW 21:35:45 10° NNW
ARGOS 4.4 21:30:20 18° E 21:32:43 24° ENE 21:36:53 10° NNE
Cosmos 2227 4.4 21:30:31 10° NNW 21:36:15 72° WSW 21:41:24 13° SSE
SAR-Lupe-4 4.0 21:32:48 11° S 21:36:16 62° W 21:39:50 10° NNW
Molniya-1 4.1 21:35:19 10° WSW 21:36:57 37° NW 21:39:05 10° NNE
FALCON 9 R/B 2.1 21:36:51 10° SW 21:38:05 17° SSW 21:38:05 17° SSW
ERS-1 Rocket 3.1 21:42:11 24° SE 21:45:03 54° ENE 21:49:57 10° N
Cosmos 1408 2.6 21:44:16 10° N 21:47:59 82° W 21:50:06 24° S
ERBS 2.3 21:48:20 10° NW 21:51:48 78° SW 21:52:42 46° SSE
Sich 1 Rocket 4.4 21:49:10 10° NNE 21:53:12 32° ENE 21:53:57 31° E
Cosmos 220 Rocket 4.4 21:55:39 10° NNW 22:00:04 63° WSW 22:02:29 26° S
SeaSat 1 3.0 22:00:11 32° ESE 22:01:52 44° ENE 22:06:33 10° NNW
Cosmos 1992 Rocket 3.9 21:57:20 10° SSW 22:02:34 78° ESE 22:07:49 10° NNE
Cosmos 2026 Rocket 4.3 21:57:56 10° NNW 22:04:08 66° W 22:09:52 12° S
USA 229 DEB 4.2 22:04:46 31° SE 22:05:58 33° ESE 22:11:58 10° NE
USA 229 4.3 22:05:02 31° SE 22:06:03 33° ESE 22:12:03 10° NE
H-2A R/B 4.0 22:07:13 15° ENE 22:07:13 15° ENE 22:09:31 10° NNE
MetOp-A 4.1 22:08:20 37° SE 22:10:27 67° ENE 22:15:47 10° N
Cosmos 1908 Rocket 3.7 22:06:26 10° N 22:10:40 49° E 22:11:04 47° E
Cosmos 1933 3.5 22:14:41 27° SSW 22:16:45 69° W 22:20:47 10° N
COSMOS 2428 4.2 22:23:05 20° ENE 22:23:05 20° ENE 22:25:25 10° NE
YAOGAN 6 3.5 22:20:14 35° SW 22:21:15 46° W 22:24:47 10° NNW
Cosmos 1867 4.1 22:16:09 10° NNW 22:21:23 44° NE 22:22:40 38° E
Cosmos 2263 Rocket 2.1 22:16:56 10° NNW 22:22:32 88° WSW 22:24:22 45° SSE
Abrixas rocket 4.1 22:21:09 10° WNW 22:24:04 28° NNW 22:25:18 22° NNE
H-2A R/B 2.5 22:24:03 38° E 22:24:28 39° ENE 22:29:04 10° N
Cosmos 1782 Rocket 4.2 22:20:25 10° N 22:24:09 39° ENE 22:24:09 39° ENE
Okean 2 Rocket 4.3 22:20:46 10° NNE 22:24:13 29° ENE 22:24:13 29° ENE
Cosmos 2322 Rocket 2.9 22:20:06 10° SW 22:25:33 53° WNW 22:31:04 10° NNE
Terra 3.3 22:26:53 23° ENE 22:26:53 23° ENE 22:30:21 10° NNE
Cosmos 1733 Rocket 4.3 22:28:11 10° NNW 22:32:19 38° W 22:34:27 24° SW
Meteor 2-10 Rocket 3.7 22:30:48 27° SSW 22:34:07 85° W 22:39:58 10° N
Cosmos 2360 Rocket 2.0 22:34:16 38° S 22:36:29 76° ESE 22:42:11 10° NNE
SL-08 RB Rocket 3.6 22:37:52 71° E 22:37:58 71° ENE 22:42:31 10° N
Lacrosse 4 Rocket 2.7 22:34:55 10° NW 22:38:51 34° WSW 22:39:39 32° SW
Meteor 1-20 Rocket 4.5 22:34:34 10° N 22:39:57 48° ENE 22:40:13 48° E
Cosmos 2322 3.6 22:40:41 54° S 22:41:55 72° ESE 22:47:36 10° NNE
NOAA 11 4.5 22:42:49 41° SSW 22:44:36 63° WSW 22:50:05 10° NNW
Cosmos 968 Rocket 3.3 22:40:43 10° NNW 22:45:56 87° ENE 22:46:23 75° SSE
Cosmos 2266 Rocket 4.0 22:45:41 10° N 22:51:58 81° W 22:53:44 50° S
SL-16 R/B 3.8 22:47:38 10° WSW 22:52:44 34° WNW 22:57:53 10° N
Okean 1-7 3.6 22:55:18 51° NNE 22:55:18 51° NNE 22:58:40 10° N
SPOT 5 3.2 22:54:50 55° SW 22:55:23 59° WSW 23:00:05 10° NNW
CZ-4C R/B 4.3 22:50:47 10° NNW 22:56:22 25° NE 22:59:44 18° ENE
Cosmos 1703 Rocket 3.9 22:57:22 63° W 22:57:22 63° W 23:01:46 10° N
Cosmos 2221 Rocket 4.0 23:00:02 60° N 23:00:02 60° N 23:03:43 10° N
Cosmos 2333 Rocket 4.2 23:04:54 15° ENE 23:04:54 15° ENE 23:06:08 10° NE
ATLAS 5 CENTAUR R/B 2.3 22:59:09 10° NW 23:05:12 79° WSW 23:05:54 70° S
Cosmos 2237 Rocket 4.5 23:14:50 12° ENE 23:14:50 12° ENE 23:15:19 10° NE
SPOT 1/Viking Rocket 3.8 23:11:28 62° WSW 23:11:38 62° WSW 23:16:50 10° NNW
Cosmos 1244 Rocket 4.4 23:05:56 10° N 23:12:09 69° E 23:12:15 69° E
ARGOS 3.8 23:11:51 43° SW 23:12:37 46° W 23:17:48 10° NNW
Cosmos 2278 Rocket 3.7 23:09:41 10° N 23:14:17 25° NE 23:14:18 25° NE
Atlas Centaur 2 4.0 23:12:37 10° WSW 23:16:54 30° SSW 23:16:54 30° SSW
SL-19 R/B 4.4 23:15:01 10° NNE 23:20:40 71° ENE 23:20:40 71° ENE
Cosmos 1553 Rocket 4.4 23:23:20 50° ENE 23:23:20 50° ENE 23:28:30 10° NNE
Cosmos 1844 Rocket 2.9 23:20:51 10° NNW 23:25:44 61° NNE 23:25:44 61° NNE
Meteor 1-10 Rocket 4.4 23:35:20 76° NNW 23:35:20 76° NNW 23:40:52 10° N
Meteor 1-11 Rocket 4.3 23:33:49 10° N 23:38:03 48° NNE 23:38:03 48° NNE
SeaSat 1 4.2 23:39:59 24° W 23:39:59 24° W 23:43:32 10° NW
H-2A R/B 3.8 23:44:20 30° NW 23:44:20 30° NW 23:46:47 10° NNW
Cosmos 2219 Rocket 3.3 23:45:21 34° NE 23:45:21 34° NE 23:48:32 10° NNE
S3M 4.2 23:51:34 64° NNE 23:51:34 64° NNE 23:56:47 10° N
